• En España
  • Lista de países
  • Para 7 días
  • Temperatura del agua
  • Mapa Satelital
  • El tiempo en el mapa
  • Informadores
  • user-avatar
    Iniciar sesión

    Tiempo cada hora Dobiegniew

    Hoy, 21 Noviembre, Martes

    Tiempo Temperatura Precipitaciones Viento Presión Humedad
    00:00 +1°C° 0 mm 2 mps 753 mmHg 95%
    01:00 +2°C° 0 mm 1 mps 753 mmHg 97%
    02:00 +2°C° 0 mm 1 mps 753 mmHg 96%
    03:00 +2°C° 0 mm 1 mps 753 mmHg 96%
    04:00 +2°C° 0 mm 1 mps 753 mmHg 96%
    05:00 +2°C° 0,1 mm 1 mps 752 mmHg 95%
    06:00 +3°C° 0,1 mm 1 mps 752 mmHg 95%
    07:00 +2°C° 0,1 mm 2 mps 752 mmHg 95%
    08:00 +2°C° 0,1 mm 2 mps 752 mmHg 92%
    09:00 +3°C° 0,1 mm 2 mps 752 mmHg 89%
    10:00 +3°C° 0,1 mm 2 mps 752 mmHg 86%
    11:00 +4°C° 0 mm 2 mps 752 mmHg 84%
    12:00 +4°C° 0 mm 2 mps 752 mmHg 81%
    13:00 +5°C° 0 mm 2 mps 752 mmHg 78%
    14:00 +4°C° 0 mm 2 mps 752 mmHg 81%
    15:00 +4°C° 0 mm 2 mps 751 mmHg 84%
    16:00 +5°C° 0 mm 1 mps 751 mmHg 86%
    17:00 +4°C° 0 mm 1 mps 751 mmHg 88%
    18:00 +3°C° 0 mm 2 mps 751 mmHg 89%
    19:00 +3°C° 0 mm 2 mps 751 mmHg 91%
    20:00 +2°C° 0 mm 2 mps 751 mmHg 92%
    21:00 +2°C° 0 mm 2 mps 751 mmHg 92%
    22:00 +2°C° 0 mm 2 mps 751 mmHg 93%
    23:00 +2°C° 0 mm 2 mps 751 mmHg 92%

    Mañana, 22 Noviembre, Miércoles

    Tiempo Temperatura Precipitaciones Viento Presión Humedad
    00:00 +2°C° 0 mm 2 mps 751 mmHg 92%
    01:00 +2°C° 0 mm 2 mps 751 mmHg 92%
    02:00 +1°C° 0,1 mm 3 mps 751 mmHg 91%
    03:00 +2°C° 0,1 mm 3 mps 751 mmHg 91%
    04:00 +2°C° 0,1 mm 3 mps 751 mmHg 90%
    05:00 +1°C° 0,4 mm 4 mps 750 mmHg 91%
    06:00 +1°C° 0,4 mm 4 mps 750 mmHg 92%
    07:00 +3°C° 0,4 mm 4 mps 750 mmHg 93%
    08:00 +3°C° 0,3 mm 4 mps 750 mmHg 93%
    09:00 +4°C° 0,3 mm 4 mps 750 mmHg 93%
    10:00 +5°C° 0,3 mm 4 mps 750 mmHg 93%
    11:00 +5°C° 0,1 mm 4 mps 750 mmHg 92%
    12:00 +6°C° 0,1 mm 4 mps 750 mmHg 90%
    13:00 +7°C° 0,1 mm 4 mps 750 mmHg 89%
    14:00 +7°C° 0,2 mm 4 mps 750 mmHg 90%
    15:00 +6°C° 0,2 mm 4 mps 750 mmHg 91%
    16:00 +7°C° 0,2 mm 3 mps 750 mmHg 92%
    17:00 +7°C° 0,1 mm 3 mps 751 mmHg 91%
    18:00 +7°C° 0,1 mm 3 mps 751 mmHg 91%
    19:00 +7°C° 0,1 mm 3 mps 751 mmHg 91%
    20:00 +7°C° 0 mm 3 mps 751 mmHg 92%
    21:00 +7°C° 0 mm 3 mps 751 mmHg 92%
    22:00 +5°C° 0 mm 3 mps 751 mmHg 93%
    23:00 +5°C° 0 mm 3 mps 751 mmHg 93%

    Pasado mañana, 23 Noviembre, Jueves

    Tiempo Temperatura Precipitaciones Viento Presión Humedad
    00:00 +4°C° 0 mm 3 mps 752 mmHg 93%
    01:00 +4°C° 0 mm 3 mps 752 mmHg 93%
    02:00 +4°C° 0 mm 3 mps 751 mmHg 92%
    03:00 +4°C° 0 mm 3 mps 751 mmHg 91%
    04:00 +4°C° 0 mm 3 mps 751 mmHg 90%
    05:00 +3°C° 0 mm 4 mps 751 mmHg 88%
    06:00 +3°C° 0 mm 4 mps 751 mmHg 86%
    07:00 +3°C° 0 mm 4 mps 751 mmHg 84%
    08:00 +4°C° 0 mm 4 mps 751 mmHg 79%
    09:00 +5°C° 0 mm 5 mps 751 mmHg 75%
    10:00 +6°C° 0 mm 5 mps 751 mmHg 70%
    11:00 +7°C° 0 mm 5 mps 751 mmHg 68%
    12:00 +8°C° 0 mm 5 mps 751 mmHg 65%
    13:00 +9°C° 0 mm 5 mps 751 mmHg 63%
    14:00 +8°C° 0 mm 5 mps 752 mmHg 67%
    15:00 +8°C° 0 mm 4 mps 752 mmHg 70%
    16:00 +8°C° 0 mm 4 mps 752 mmHg 74%
    17:00 +7°C° 0 mm 4 mps 752 mmHg 76%
    18:00 +7°C° 0 mm 4 mps 753 mmHg 78%
    19:00 +7°C° 0 mm 4 mps 753 mmHg 80%
    20:00 +7°C° 0 mm 4 mps 754 mmHg 81%
    21:00 +7°C° 0 mm 4 mps 754 mmHg 83%
    22:00 +7°C° 0 mm 4 mps 755 mmHg 84%
    23:00 +7°C° 0 mm 4 mps 755 mmHg 86%

    24 Noviembre, Viernes

    Tiempo Temperatura Precipitaciones Viento Presión Humedad
    00:00 +7°C° 0 mm 4 mps 755 mmHg 87%
    01:00 +6°C° 0 mm 4 mps 755 mmHg 88%
    02:00 +6°C° 0 mm 4 mps 755 mmHg 89%
    03:00 +7°C° 0 mm 3 mps 755 mmHg 90%
    04:00 +7°C° 0 mm 3 mps 755 mmHg 91%
    05:00 +7°C° 0 mm 3 mps 755 mmHg 92%
    06:00 +7°C° 0 mm 3 mps 755 mmHg 92%
    07:00 +7°C° 0 mm 3 mps 755 mmHg 92%
    08:00 +6°C° 0 mm 4 mps 755 mmHg 89%
    09:00 +7°C° 0 mm 4 mps 755 mmHg 86%
    10:00 +8°C° 0 mm 4 mps 756 mmHg 83%
    11:00 +10°C° 0 mm 4 mps 755 mmHg 80%
    12:00 +11°C° 0 mm 4 mps 755 mmHg 76%
    13:00 +12°C° 0 mm 4 mps 755 mmHg 73%
    14:00 +11°C° 0 mm 4 mps 755 mmHg 75%
    15:00 +11°C° 0 mm 4 mps 755 mmHg 77%
    16:00 +10°C° 0 mm 4 mps 755 mmHg 79%
    17:00 +10°C° 0 mm 4 mps 755 mmHg 77%
    18:00 +10°C° 0 mm 4 mps 755 mmHg 75%
    19:00 +9°C° 0 mm 5 mps 755 mmHg 73%
    20:00 +9°C° 0 mm 5 mps 755 mmHg 73%
    21:00 +9°C° 0 mm 5 mps 755 mmHg 72%
    22:00 +9°C° 0 mm 5 mps 755 mmHg 72%
    23:00 +10°C° 0 mm 4 mps 755 mmHg 74%

    25 Noviembre, Sábado

    Tiempo Temperatura Precipitaciones Viento Presión Humedad
    00:00 +10°C° 0 mm 4 mps 755 mmHg 75%
    01:00 +8°C° 0 mm 4 mps 755 mmHg 76%
    02:00 +8°C° 0 mm 4 mps 755 mmHg 77%
    03:00 +8°C° 0 mm 4 mps 755 mmHg 77%
    04:00 +8°C° 0 mm 4 mps 755 mmHg 77%
    05:00 +8°C° 0 mm 4 mps 755 mmHg 78%
    06:00 +8°C° 0 mm 4 mps 754 mmHg 79%
    07:00 +7°C° 0 mm 4 mps 754 mmHg 80%
    08:00 +8°C° 0 mm 4 mps 754 mmHg 76%
    09:00 +8°C° 0 mm 4 mps 754 mmHg 72%
    10:00 +9°C° 0 mm 5 mps 754 mmHg 69%
    11:00 +9°C° 0 mm 5 mps 753 mmHg 67%
    12:00 +9°C° 0 mm 5 mps 752 mmHg 65%
    13:00 +10°C° 0 mm 5 mps 752 mmHg 63%
    14:00 +9°C° 0 mm 5 mps 751 mmHg 64%
    15:00 +9°C° 0 mm 5 mps 751 mmHg 65%
    16:00 +9°C° 0 mm 5 mps 750 mmHg 67%
    17:00 +9°C° 0 mm 5 mps 750 mmHg 67%
    18:00 +9°C° 0 mm 5 mps 749 mmHg 67%
    19:00 +9°C° 0 mm 6 mps 749 mmHg 67%
    20:00 +9°C° 0,3 mm 6 mps 749 mmHg 69%
    21:00 +9°C° 0,3 mm 7 mps 750 mmHg 70%
    22:00 +9°C° 0,3 mm 7 mps 750 mmHg 71%
    23:00 +8°C° 0,1 mm 7 mps 751 mmHg 66%

    26 Noviembre, Domingo

    Tiempo Temperatura Precipitaciones Viento Presión Humedad
    00:00 +6°C° 0,1 mm 7 mps 751 mmHg 62%
    01:00 +5°C° 0,1 mm 8 mps 752 mmHg 57%
    02:00 +5°C° 0 mm 7 mps 752 mmHg 58%
    03:00 +4°C° 0 mm 7 mps 753 mmHg 60%
    04:00 +4°C° 0 mm 7 mps 753 mmHg 62%
    05:00 +3°C° 0 mm 7 mps 754 mmHg 64%
    06:00 +3°C° 0 mm 7 mps 754 mmHg 66%
    07:00 +3°C° 0 mm 7 mps 755 mmHg 68%
    08:00 +3°C° 0 mm 7 mps 756 mmHg 66%
    09:00 +3°C° 0 mm 7 mps 756 mmHg 64%
    10:00 +2°C° 0 mm 8 mps 757 mmHg 62%
    11:00 +2°C° 0 mm 8 mps 757 mmHg 59%
    12:00 +4°C° 0 mm 8 mps 757 mmHg 57%
    13:00 +4°C° 0 mm 8 mps 758 mmHg 55%
    14:00 +4°C° 0 mm 7 mps 758 mmHg 56%
    15:00 +3°C° 0 mm 7 mps 758 mmHg 58%
    16:00 +3°C° 0 mm 7 mps 759 mmHg 60%
    17:00 +3°C° 0 mm 7 mps 759 mmHg 62%
    18:00 +3°C° 0 mm 7 mps 759 mmHg 65%
    19:00 +2°C° 0 mm 7 mps 760 mmHg 68%
    20:00 +2°C° 0 mm 7 mps 760 mmHg 69%
    21:00 +2°C° 0 mm 7 mps 760 mmHg 70%
    22:00 +2°C° 0 mm 7 mps 760 mmHg 71%
    23:00 +2°C° 0 mm 7 mps 760 mmHg 71%
    Mostrar más